TimeICT,TemperatureF,Dew PointF,Humidity,Sea Level PressureIn,VisibilityMPH,Wind Direction,Wind SpeedMPH,Gust SpeedMPH,PrecipitationIn,Events,Conditions,WindDirDegrees,DateUTC
12:00 AM,82.4,77.0,84,29.77,5.6,South,3.5,-,N/A,,Scattered Clouds,170,2013-06-29 17:00:00
12:30 AM,82.4,77.0,84,29.77,5.6,SW,3.5,-,N/A,,Scattered Clouds,230,2013-06-29 17:30:00
1:00 AM,82.4,77.0,84,29.77,5.6,South,3.5,-,N/A,,Scattered Clouds,180,2013-06-29 18:00:00
6:00 AM,82.4,73.4,74,29.74,5.6,West,3.5,-,N/A,,Scattered Clouds,280,2013-06-29 23:00:00
7:00 AM,84.2,73.4,70,29.74,-9999.0,West,2.3,-,N/A,,Clear,280,2013-06-30 00:00:00
7:30 AM,84.2,73.4,70,29.74,-9999.0,West,4.6,-,N/A,,Clear,260,2013-06-30 00:30:00
8:00 AM,86.0,73.4,66,29.74,-9999.0,West,6.9,-,N/A,,Clear,260,2013-06-30 01:00:00
8:30 AM,87.8,73.4,62,29.74,-9999.0,West,6.9,-,N/A,,Clear,270,2013-06-30 01:30:00
9:00 AM,89.6,73.4,59,29.74,-9999.0,WNW,8.1,-,N/A,,Clear,300,2013-06-30 02:00:00
9:30 AM,89.6,71.6,55,29.74,-9999.0,West,8.1,-,N/A,,Clear,270,2013-06-30 02:30:00
10:00 AM,93.2,69.8,46,29.74,-9999.0,NW,5.8,-,N/A,,Clear,320,2013-06-30 03:00:00
10:30 AM,93.2,71.6,49,29.74,-9999.0,NNW,5.8,-,N/A,,Clear,330,2013-06-30 03:30:00
11:00 AM,93.2,71.6,49,29.74,6.2,WNW,5.8,-,N/A,,Partly Cloudy,300,2013-06-30 04:00:00
11:30 AM,93.2,68.0,44,29.71,6.2,WNW,4.6,-,N/A,,Partly Cloudy,300,2013-06-30 04:30:00
12:00 PM,93.2,69.8,46,29.71,6.2,West,9.2,-,N/A,,Partly Cloudy,260,2013-06-30 05:00:00
12:30 PM,93.2,68.0,44,29.71,6.2,West,9.2,-,N/A,,Scattered Clouds,280,2013-06-30 05:30:00
1:00 PM,95.0,68.0,41,29.68,6.2,West,9.2,-,N/A,,Scattered Clouds,280,2013-06-30 06:00:00
1:30 PM,95.0,69.8,44,29.68,6.2,WSW,6.9,-,N/A,,Scattered Clouds,240,2013-06-30 06:30:00
2:00 PM,95.0,69.8,44,29.65,6.2,WSW,5.8,-,N/A,,Scattered Clouds,240,2013-06-30 07:00:00
2:30 PM,96.8,68.0,39,29.65,6.2,West,9.2,-,N/A,,Partly Cloudy,270,2013-06-30 07:30:00
3:00 PM,96.8,69.8,41,29.65,6.2,WSW,8.1,-,N/A,,Partly Cloudy,240,2013-06-30 08:00:00
3:30 PM,96.8,68.0,39,29.65,6.2,WSW,5.8,-,N/A,,Partly Cloudy,240,2013-06-30 08:30:00
4:00 PM,96.8,68.0,39,29.65,6.2,NW,8.1,-,N/A,,Partly Cloudy,320,2013-06-30 09:00:00
4:30 PM,96.8,66.2,37,29.65,6.2,WNW,5.8,-,N/A,,Partly Cloudy,300,2013-06-30 09:30:00
5:00 PM,82.4,73.4,74,29.68,0.6,West,31.1,-,N/A,Rain-Thunderstorm,Heavy Thunderstorms and Rain,270,2013-06-30 10:00:00
5:30 PM,77.0,71.6,83,29.68,3.1,SW,17.3,-,N/A,Rain-Thunderstorm,Thunderstorms and Rain,220,2013-06-30 10:30:00
6:00 PM,78.8,73.4,83,29.68,6.2,South,5.8,-,N/A,,Scattered Clouds,190,2013-06-30 11:00:00
6:30 PM,80.6,73.4,79,29.68,6.2,South,3.5,-,N/A,,Scattered Clouds,170,2013-06-30 11:30:00
7:00 PM,82.4,73.4,74,29.68,6.2,SW,4.6,-,N/A,,Scattered Clouds,230,2013-06-30 12:00:00
7:30 PM,82.4,73.4,74,29.68,6.2,SW,8.1,-,N/A,,Scattered Clouds,220,2013-06-30 12:30:00
8:30 PM,82.4,73.4,74,29.71,6.2,West,3.5,-,N/A,,Scattered Clouds,260,2013-06-30 13:30:00
9:30 PM,82.4,73.4,74,29.74,6.2,SW,4.6,-,N/A,,Scattered Clouds,220,2013-06-30 14:30:00
11:00 PM,82.4,75.2,79,29.71,6.2,West,5.8,-,N/A,,Scattered Clouds,260,2013-06-30 16:00:00